sat.trackr.live / text

‹ back to catalog

STARLINK-35853

NORAD 67177 · 2025-303Q

PAYLOAD ACTIVE UNKNOWN

§ Identity

Operator
Country
US
Launch date
2025-12-17
Launch site
AFETR
Launch vehicle
Mass (kg)
RCS (m²)

Purposes: comms

External: N2YO · Heavens-Above · Gunter

§ Orbital elements

Epoch: 2026-05-24T23:46:58.071360Z

Period
94.27 min
Inclination
43.0011°
Eccentricity
0.0002227
Mean motion
15.27591181 rev/d
Perigee alt
481.5 km
Apogee alt
484.5 km
Semi-major
6,861.2 km
B*
5.0024e-4
RAAN
239.8711°
Arg perigee
273.5337°
Mean anomaly
86.5260°
Rev number
2,440

§ Raw data

STARLINK-358531 67177U 25303Q   26144.99094990  .00013534  00000+0  50024-3 0  99962 67177  43.0011 239.8711 0002227 273.5337  86.5260 15.27591181 24400

JSON: /api/v1/satellites/67177 · /tle

For live sub-satellite position, see the globe view (requires WebGL).

§ Visibility from observer

Set your observer location to see the next 7 days of passes ≥ 10°. The values pass through the URL so the page stays shareable.

No JS? Fill the form by hand. The geolocation button needs JavaScript.